Time,TemperatureF,DewpointF,PressureIn,WindDirection,WindDirectionDegrees,WindSpeedMPH,WindSpeedGustMPH,Humidity,HourlyPrecipIn,Conditions,Clouds,dailyrainin,SoftwareType,DateUTC
2013-04-05 00:02:00,42.0,21.0,30.01,SSW,192,2.0,7.0,42,0.00,,,0.00,,2013-04-05 04:02:00,
2013-04-05 00:13:00,42.0,21.0,30.01,SSW,192,2.0,7.0,42,0.00,,,0.00,,2013-04-05 04:13:00,
2013-04-05 00:23:00,41.0,20.0,30.00,SSW,201,1.0,9.0,43,0.00,,,0.00,,2013-04-05 04:23:00,
2013-04-05 00:32:00,41.0,20.0,30.00,SSW,201,1.0,9.0,43,0.00,,,0.00,,2013-04-05 04:32:00,
2013-04-05 00:42:00,41.0,20.0,30.00,SSW,201,1.0,9.0,43,0.00,,,0.00,,2013-04-05 04:42:00,
2013-04-05 00:52:00,40.0,20.0,29.99,SSW,195,0.0,5.0,45,0.00,,,0.00,,2013-04-05 04:52:00,
2013-04-05 01:02:00,40.0,20.0,29.99,SSW,195,0.0,5.0,45,0.00,,,0.00,,2013-04-05 05:02:00,
2013-04-05 01:13:00,40.0,20.0,29.99,SSW,195,0.0,5.0,45,0.00,,,0.00,,2013-04-05 05:13:00,
2013-04-05 01:22:00,40.0,20.0,29.97,SSW,196,0.0,3.0,45,0.00,,,0.00,,2013-04-05 05:22:00,
2013-04-05 01:32:00,40.0,20.0,29.97,SSW,196,0.0,3.0,45,0.00,,,0.00,,2013-04-05 05:32:00,
2013-04-05 01:42:00,40.0,20.0,29.97,SSW,196,0.0,3.0,45,0.00,,,0.00,,2013-04-05 05:42:00,
2013-04-05 01:53:00,40.0,21.0,29.96,SW,236,0.0,5.0,46,0.00,,,0.00,,2013-04-05 05:53:00,
2013-04-05 02:02:00,40.0,21.0,29.96,SW,236,0.0,5.0,46,0.00,,,0.00,,2013-04-05 06:02:00,
2013-04-05 02:12:00,40.0,21.0,29.96,SW,236,0.0,5.0,46,0.00,,,0.00,,2013-04-05 06:12:00,
2013-04-05 02:22:00,39.0,22.0,29.95,SW,227,0.0,1.0,51,0.00,,,0.00,,2013-04-05 06:22:00,
2013-04-05 02:32:00,39.0,22.0,29.95,SW,227,0.0,1.0,51,0.00,,,0.00,,2013-04-05 06:32:00,
2013-04-05 02:42:00,39.0,22.0,29.95,SW,227,0.0,1.0,51,0.00,,,0.00,,2013-04-05 06:42:00,
2013-04-05 02:52:00,37.0,23.0,29.94,SW,228,0.0,1.0,56,0.00,,,0.00,,2013-04-05 06:52:00,
2013-04-05 03:02:00,37.0,23.0,29.94,SW,228,0.0,1.0,56,0.00,,,0.00,,2013-04-05 07:02:00,
2013-04-05 03:12:00,37.0,23.0,29.94,SW,228,0.0,1.0,56,0.00,,,0.00,,2013-04-05 07:12:00,
2013-04-05 03:22:00,35.0,23.0,29.93,West,278,0.0,3.0,60,0.00,,,0.00,,2013-04-05 07:22:00,
2013-04-05 03:32:00,35.0,23.0,29.93,West,278,0.0,3.0,60,0.00,,,0.00,,2013-04-05 07:32:00,
2013-04-05 03:42:00,35.0,23.0,29.93,West,278,0.0,3.0,60,0.00,,,0.00,,2013-04-05 07:42:00,
2013-04-05 03:53:00,35.0,23.0,29.92,West,278,0.0,2.0,61,0.00,,,0.00,,2013-04-05 07:53:00,
2013-04-05 04:02:00,35.0,23.0,29.92,West,278,0.0,2.0,61,0.00,,,0.00,,2013-04-05 08:02:00,
2013-04-05 04:13:00,35.0,23.0,29.92,West,278,0.0,2.0,61,0.00,,,0.00,,2013-04-05 08:13:00,
2013-04-05 04:22:00,35.0,24.0,29.91,WNW,282,0.0,3.0,63,0.00,,,0.00,,2013-04-05 08:22:00,
2013-04-05 04:32:00,35.0,24.0,29.91,WNW,282,0.0,3.0,63,0.00,,,0.00,,2013-04-05 08:32:00,
2013-04-05 04:43:00,35.0,24.0,29.91,WNW,282,0.0,3.0,63,0.00,,,0.00,,2013-04-05 08:43:00,
2013-04-05 04:52:00,33.0,23.0,29.90,West,281,0.0,1.0,66,0.00,,,0.00,,2013-04-05 08:52:00,
2013-04-05 05:02:00,33.0,23.0,29.90,West,281,0.0,1.0,66,0.00,,,0.00,,2013-04-05 09:02:00,
2013-04-05 05:12:00,33.0,23.0,29.90,West,281,0.0,1.0,66,0.00,,,0.00,,2013-04-05 09:12:00,
2013-04-05 05:22:00,32.0,23.0,29.90,West,273,1.0,2.0,69,0.00,,,0.00,,2013-04-05 09:22:00,
2013-04-05 05:33:00,32.0,23.0,29.90,West,273,1.0,2.0,69,0.00,,,0.00,,2013-04-05 09:33:00,
2013-04-05 05:43:00,32.0,23.0,29.90,West,273,1.0,2.0,69,0.00,,,0.00,,2013-04-05 09:43:00,
2013-04-05 05:53:00,30.0,22.0,29.90,West,277,0.0,2.0,71,0.00,,,0.00,,2013-04-05 09:53:00,
2013-04-05 06:03:00,30.0,22.0,29.90,West,277,0.0,2.0,71,0.00,,,0.00,,2013-04-05 10:03:00,
2013-04-05 06:13:00,30.0,22.0,29.90,West,277,0.0,2.0,71,0.00,,,0.00,,2013-04-05 10:13:00,
2013-04-05 06:23:00,29.0,21.0,29.89,West,280,0.0,0.0,73,0.00,,,0.00,,2013-04-05 10:23:00,
2013-04-05 06:33:00,29.0,21.0,29.89,West,280,0.0,0.0,73,0.00,,,0.00,,2013-04-05 10:33:00,
2013-04-05 06:43:00,29.0,21.0,29.89,West,280,0.0,0.0,73,0.00,,,0.00,,2013-04-05 10:43:00,
2013-04-05 06:53:00,29.0,22.0,29.89,West,280,0.0,0.0,76,0.00,,,0.00,,2013-04-05 10:53:00,
2013-04-05 07:03:00,29.0,22.0,29.89,West,280,0.0,0.0,76,0.00,,,0.00,,2013-04-05 11:03:00,
2013-04-05 07:13:00,29.0,22.0,29.89,West,280,0.0,0.0,76,0.00,,,0.00,,2013-04-05 11:13:00,
2013-04-05 07:22:00,29.0,23.0,29.90,West,279,0.0,0.0,77,0.00,,,0.00,,2013-04-05 11:22:00,
2013-04-05 07:33:00,29.0,23.0,29.90,West,279,0.0,0.0,77,0.00,,,0.00,,2013-04-05 11:33:00,
2013-04-05 07:42:00,29.0,23.0,29.90,West,279,0.0,0.0,77,0.00,,,0.00,,2013-04-05 11:42:00,
2013-04-05 07:52:00,29.0,23.0,29.90,West,280,0.0,0.0,79,0.00,,,0.00,,2013-04-05 11:52:00,
2013-04-05 08:02:00,29.0,23.0,29.90,West,280,0.0,0.0,79,0.00,,,0.00,,2013-04-05 12:02:00,
2013-04-05 08:12:00,29.0,23.0,29.90,West,280,0.0,0.0,79,0.00,,,0.00,,2013-04-05 12:12:00,
2013-04-05 08:22:00,32.0,25.0,29.89,West,281,1.0,3.0,74,0.00,,,0.00,,2013-04-05 12:22:00,
2013-04-05 08:32:00,32.0,25.0,29.89,West,281,1.0,3.0,74,0.00,,,0.00,,2013-04-05 12:32:00,
2013-04-05 08:42:00,32.0,25.0,29.89,West,281,1.0,3.0,74,0.00,,,0.00,,2013-04-05 12:42:00,
2013-04-05 08:52:00,36.0,26.0,29.88,West,273,0.0,4.0,67,0.00,,,0.00,,2013-04-05 12:52:00,
2013-04-05 09:02:00,36.0,26.0,29.88,West,273,0.0,4.0,67,0.00,,,0.00,,2013-04-05 13:02:00,
2013-04-05 09:12:00,36.0,26.0,29.88,West,273,0.0,4.0,67,0.00,,,0.00,,2013-04-05 13:12:00,
2013-04-05 09:23:00,40.0,27.0,29.88,SSW,199,0.0,6.0,60,0.00,,,0.00,,2013-04-05 13:23:00,
2013-04-05 09:32:00,40.0,27.0,29.88,SSW,199,0.0,6.0,60,0.00,,,0.00,,2013-04-05 13:32:00,
2013-04-05 09:42:00,40.0,27.0,29.88,SSW,199,0.0,6.0,60,0.00,,,0.00,,2013-04-05 13:42:00,
2013-04-05 09:52:00,43.0,28.0,29.87,SSW,198,4.0,5.0,54,0.00,,,0.00,,2013-04-05 13:52:00,
2013-04-05 10:03:00,43.0,28.0,29.87,SSW,198,4.0,5.0,54,0.00,,,0.00,,2013-04-05 14:03:00,
2013-04-05 10:12:00,43.0,28.0,29.87,SSW,198,4.0,5.0,54,0.00,,,0.00,,2013-04-05 14:12:00,
2013-04-05 10:23:00,46.0,29.0,29.86,South,181,2.0,9.0,51,0.00,,,0.00,,2013-04-05 14:23:00,
2013-04-05 10:36:00,46.0,29.0,29.86,South,181,2.0,9.0,51,0.00,,,0.00,,2013-04-05 14:36:00,
2013-04-05 10:43:00,46.0,29.0,29.86,South,181,2.0,9.0,51,0.00,,,0.00,,2013-04-05 14:43:00,
2013-04-05 10:54:00,49.0,29.0,29.79,SSW,196,1.0,8.0,46,0.00,,,0.00,,2013-04-05 14:54:00,
2013-04-05 11:02:00,49.0,29.0,29.79,SSW,196,1.0,8.0,46,0.00,,,0.00,,2013-04-05 15:02:00,
2013-04-05 11:13:00,49.0,29.0,29.79,SSW,196,1.0,8.0,46,0.00,,,0.00,,2013-04-05 15:13:00,
2013-04-05 11:23:00,52.0,28.0,29.85,WSW,251,0.0,8.0,39,0.00,,,0.00,,2013-04-05 15:23:00,
2013-04-05 11:33:00,52.0,28.0,29.85,WSW,251,0.0,8.0,39,0.00,,,0.00,,2013-04-05 15:33:00,
2013-04-05 11:43:00,52.0,28.0,29.85,WSW,251,0.0,8.0,39,0.00,,,0.00,,2013-04-05 15:43:00,
2013-04-05 11:54:00,54.0,28.0,29.85,North,8,4.0,9.0,37,0.00,,,0.00,,2013-04-05 15:54:00,
2013-04-05 12:03:00,54.0,28.0,29.85,North,8,4.0,9.0,37,0.00,,,0.00,,2013-04-05 16:03:00,
2013-04-05 12:14:00,54.0,28.0,29.85,North,8,4.0,9.0,37,0.00,,,0.00,,2013-04-05 16:14:00,
2013-04-05 12:23:00,56.0,27.0,29.84,WNW,285,4.0,13.0,33,0.00,,,0.00,,2013-04-05 16:23:00,
2013-04-05 12:33:00,56.0,27.0,29.84,WNW,285,4.0,13.0,33,0.00,,,0.00,,2013-04-05 16:33:00,
2013-04-05 12:43:00,56.0,27.0,29.84,WNW,285,4.0,13.0,33,0.00,,,0.00,,2013-04-05 16:43:00,
2013-04-05 12:53:00,57.0,29.0,29.83,WNW,289,2.0,9.0,34,0.00,,,0.00,,2013-04-05 16:53:00,
2013-04-05 13:03:00,57.0,29.0,29.83,WNW,289,2.0,9.0,34,0.00,,,0.00,,2013-04-05 17:03:00,
2013-04-05 13:13:00,57.0,29.0,29.83,WNW,289,2.0,9.0,34,0.00,,,0.00,,2013-04-05 17:13:00,
2013-04-05 13:23:00,58.0,29.0,29.82,NNW,331,8.0,14.0,33,0.00,,,0.00,,2013-04-05 17:23:00,
2013-04-05 13:32:00,58.0,29.0,29.82,NNW,331,8.0,14.0,33,0.00,,,0.00,,2013-04-05 17:32:00,
2013-04-05 13:46:00,58.0,29.0,29.82,NNW,331,8.0,14.0,33,0.00,,,0.00,,2013-04-05 17:46:00,
2013-04-05 13:53:00,59.0,31.0,29.80,NW,308,8.0,15.0,34,0.00,,,0.00,,2013-04-05 17:53:00,
2013-04-05 14:02:00,59.0,31.0,29.80,NW,308,8.0,15.0,34,0.00,,,0.00,,2013-04-05 18:02:00,
2013-04-05 14:13:00,59.0,31.0,29.80,NW,308,8.0,15.0,34,0.00,,,0.00,,2013-04-05 18:13:00,
2013-04-05 14:23:00,57.0,29.0,29.79,NW,316,4.0,19.0,34,0.00,,,0.00,,2013-04-05 18:23:00,
2013-04-05 14:33:00,57.0,29.0,29.79,NW,316,4.0,19.0,34,0.00,,,0.00,,2013-04-05 18:33:00,
2013-04-05 14:43:00,57.0,29.0,29.79,NW,316,4.0,19.0,34,0.00,,,0.00,,2013-04-05 18:43:00,
2013-04-05 14:53:00,59.0,30.0,29.78,WSW,254,7.0,18.0,33,0.00,,,0.00,,2013-04-05 18:53:00,
2013-04-05 15:01:00,60.0,28.0,29.78,NNW,327,7.0,22.0,30,0.00,,,0.00,,2013-04-05 19:01:00,
2013-04-05 15:02:00,59.0,30.0,29.78,WSW,254,7.0,18.0,33,0.00,,,0.00,,2013-04-05 19:02:00,
2013-04-05 15:13:00,59.0,30.0,29.78,WSW,254,7.0,18.0,33,0.00,,,0.00,,2013-04-05 19:13:00,
2013-04-05 15:23:00,60.0,28.0,29.78,NNW,327,7.0,22.0,30,0.00,,,0.00,,2013-04-05 19:23:00,
2013-04-05 15:33:00,60.0,28.0,29.78,NNW,327,7.0,22.0,30,0.00,,,0.00,,2013-04-05 19:33:00,
2013-04-05 15:43:00,60.0,28.0,29.78,NNW,327,7.0,22.0,30,0.00,,,0.00,,2013-04-05 19:43:00,
2013-04-05 15:53:00,60.0,28.0,29.78,NNW,327,7.0,22.0,30,0.00,,,0.00,,2013-04-05 19:53:00,
2013-04-05 16:22:00,60.0,29.0,29.78,NNW,343,3.0,16.0,31,0.00,,,0.00,,2013-04-05 20:22:00,
2013-04-05 16:33:00,60.0,29.0,29.78,NNW,343,3.0,16.0,31,0.00,,,0.00,,2013-04-05 20:33:00,
2013-04-05 16:43:00,60.0,29.0,29.78,NNW,343,3.0,16.0,31,0.00,,,0.00,,2013-04-05 20:43:00,
2013-04-05 16:53:00,59.0,23.0,29.78,WNW,299,6.0,18.0,25,0.00,,,0.00,,2013-04-05 20:53:00,
2013-04-05 17:03:00,59.0,23.0,29.78,WNW,299,6.0,18.0,25,0.00,,,0.00,,2013-04-05 21:03:00,
2013-04-05 17:13:00,59.0,23.0,29.78,WNW,299,6.0,18.0,25,0.00,,,0.00,,2013-04-05 21:13:00,
2013-04-05 17:23:00,59.0,25.0,29.78,NNW,334,7.0,19.0,27,0.00,,,0.00,,2013-04-05 21:23:00,
2013-04-05 17:33:00,59.0,25.0,29.78,NNW,334,7.0,19.0,27,0.00,,,0.00,,2013-04-05 21:33:00,
2013-04-05 17:44:00,59.0,25.0,29.78,NNW,334,7.0,19.0,27,0.00,,,0.00,,2013-04-05 21:44:00,
2013-04-05 17:55:00,60.0,25.0,29.79,North,356,9.0,23.0,26,0.00,,,0.00,,2013-04-05 21:55:00,
2013-04-05 18:03:00,60.0,25.0,29.79,North,356,9.0,23.0,26,0.00,,,0.00,,2013-04-05 22:03:00,
2013-04-05 18:13:00,60.0,25.0,29.79,North,356,9.0,23.0,26,0.00,,,0.00,,2013-04-05 22:13:00,
2013-04-05 18:23:00,58.0,24.0,29.81,NNW,344,8.0,18.0,27,0.00,,,0.00,,2013-04-05 22:23:00,
2013-04-05 18:33:00,58.0,24.0,29.81,NNW,344,8.0,18.0,27,0.00,,,0.00,,2013-04-05 22:33:00,
2013-04-05 18:44:00,58.0,24.0,29.81,NNW,344,8.0,18.0,27,0.00,,,0.00,,2013-04-05 22:44:00,
2013-04-05 18:53:00,56.0,23.0,29.83,North,11,3.0,19.0,27,0.00,,,0.00,,2013-04-05 22:53:00,
2013-04-05 19:03:00,56.0,23.0,29.83,North,11,3.0,19.0,27,0.00,,,0.00,,2013-04-05 23:03:00,
2013-04-05 19:13:00,56.0,23.0,29.83,North,11,3.0,19.0,27,0.00,,,0.00,,2013-04-05 23:13:00,
2013-04-05 19:22:00,53.0,22.0,29.85,North,353,2.0,12.0,29,0.00,,,0.00,,2013-04-05 23:22:00,
2013-04-05 19:32:00,53.0,22.0,29.85,North,353,2.0,12.0,29,0.00,,,0.00,,2013-04-05 23:32:00,
2013-04-05 19:43:00,53.0,22.0,29.85,North,353,2.0,12.0,29,0.00,,,0.00,,2013-04-05 23:43:00,
2013-04-05 19:53:00,51.0,21.0,29.88,NNW,339,2.0,15.0,30,0.00,,,0.00,,2013-04-05 23:53:00,
2013-04-05 20:02:00,51.0,21.0,29.88,NNW,339,2.0,15.0,30,0.00,,,0.00,,2013-04-06 00:02:00,
2013-04-05 20:13:00,51.0,21.0,29.88,NNW,339,2.0,15.0,30,0.00,,,0.00,,2013-04-06 00:13:00,
2013-04-05 20:23:00,49.0,20.0,29.90,NNE,22,3.0,14.0,32,0.00,,,0.00,,2013-04-06 00:23:00,
2013-04-05 20:33:00,49.0,20.0,29.90,NNE,22,3.0,14.0,32,0.00,,,0.00,,2013-04-06 00:33:00,
2013-04-05 20:43:00,49.0,20.0,29.90,NNE,22,3.0,14.0,32,0.00,,,0.00,,2013-04-06 00:43:00,
2013-04-05 20:52:00,47.0,21.0,29.92,North,349,1.0,13.0,35,0.00,,,0.00,,2013-04-06 00:52:00,
2013-04-05 21:02:00,47.0,21.0,29.92,North,349,1.0,13.0,35,0.00,,,0.00,,2013-04-06 01:02:00,
2013-04-05 21:13:00,45.0,24.0,29.96,NE,44,5.0,12.0,43,0.00,,,0.00,,2013-04-06 01:13:00,
2013-04-05 21:22:00,45.0,24.0,29.96,NE,44,5.0,12.0,43,0.00,,,0.00,,2013-04-06 01:22:00,
2013-04-05 21:33:00,45.0,24.0,29.96,NE,44,5.0,12.0,43,0.00,,,0.00,,2013-04-06 01:33:00,
2013-04-05 21:43:00,45.0,24.0,29.96,NE,44,5.0,12.0,43,0.00,,,0.00,,2013-04-06 01:43:00,
2013-04-05 21:53:00,44.0,24.0,29.98,NNW,335,0.0,12.0,45,0.00,,,0.00,,2013-04-06 01:53:00,
2013-04-05 22:02:00,44.0,24.0,29.98,NNW,335,0.0,12.0,45,0.00,,,0.00,,2013-04-06 02:02:00,
2013-04-05 22:12:00,44.0,24.0,29.98,NNW,335,0.0,12.0,45,0.00,,,0.00,,2013-04-06 02:12:00,
2013-04-05 22:23:00,42.0,22.0,30.01,NW,318,0.0,11.0,45,0.00,,,0.00,,2013-04-06 02:23:00,
2013-04-05 22:32:00,42.0,22.0,30.01,NW,318,0.0,11.0,45,0.00,,,0.00,,2013-04-06 02:32:00,
2013-04-05 22:43:00,42.0,22.0,30.01,NW,318,0.0,11.0,45,0.00,,,0.00,,2013-04-06 02:43:00,
2013-04-05 22:53:00,41.0,23.0,30.01,NNW,341,8.0,8.0,48,0.00,,,0.00,,2013-04-06 02:53:00,
2013-04-05 23:02:00,41.0,23.0,30.01,NNW,341,8.0,8.0,48,0.00,,,0.00,,2013-04-06 03:02:00,
2013-04-05 23:13:00,41.0,23.0,30.01,NNW,341,8.0,8.0,48,0.00,,,0.00,,2013-04-06 03:13:00,
2013-04-05 23:22:00,40.0,22.0,30.01,West,259,0.0,9.0,49,0.00,,,0.00,,2013-04-06 03:22:00,
2013-04-05 23:34:00,40.0,22.0,30.01,West,259,0.0,9.0,49,0.00,,,0.00,,2013-04-06 03:34:00,
2013-04-05 23:43:00,40.0,22.0,30.01,West,259,0.0,9.0,49,0.00,,,0.00,,2013-04-06 03:43:00,
2013-04-05 23:54:00,39.0,22.0,30.03,West,261,0.0,7.0,50,0.00,,,0.00,,2013-04-06 03:54:00,